VLG91WF LIMC-LEBL

Flight info

Callsign VLG91WF
Flight time 1h 15m
Altitude 29000
Route NEDED DCT GEKBA DCT VAMTU DCT KOLON DCT GANGU DCT PADKO DCT DIVKO DCT NILDU DCT BISBA
Aircraft A320/M-SDE3FGHIRWY/LB1

Departure

Time 2026-05-07 16:53
Airport Milan Malpensa International Airport (LIMC)

Arrival

Time 2026-05-07 18:08
Airport Josep Tarradellas Barcelona-El Prat Airport (LEBL)
Time Latitude Longitude Altitude Speed Heading
2026-05-07 16:22 45.64548 8.72409 749 ft 0 kts 349°
2026-05-07 16:39 45.64541 8.72411 747 ft 3 kts 348°
2026-05-07 16:39 45.64521 8.72418 749 ft 3 kts 341°
2026-05-07 16:40 45.64503 8.72428 749 ft 3 kts 335°
2026-05-07 16:40 45.64485 8.72441 747 ft 3 kts 326°
2026-05-07 16:40 45.64469 8.72459 747 ft 3 kts 311°
2026-05-07 16:40 45.64459 8.72481 748 ft 3 kts 277°
2026-05-07 16:41 45.64458 8.72492 748 ft 0 kts 259°
2026-05-07 16:44 45.64457 8.72484 748 ft 5 kts 259°
2026-05-07 16:44 45.64415 8.72429 752 ft 10 kts 192°
2026-05-07 16:45 45.64332 8.72449 751 ft 14 kts 169°
2026-05-07 16:45 45.64225 8.72480 752 ft 17 kts 168°
2026-05-07 16:45 45.64097 8.72518 751 ft 21 kts 168°
2026-05-07 16:45 45.63947 8.72567 749 ft 24 kts 169°
2026-05-07 16:46 45.63777 8.72614 752 ft 26 kts 169°
2026-05-07 16:46 45.63591 8.72665 752 ft 28 kts 169°
2026-05-07 16:46 45.63391 8.72720 752 ft 30 kts 169°
2026-05-07 16:46 45.63199 8.72774 752 ft 28 kts 169°
2026-05-07 16:47 45.63003 8.72830 748 ft 30 kts 169°
2026-05-07 16:47 45.62821 8.72878 753 ft 28 kts 169°
2026-05-07 16:47 45.62625 8.72931 753 ft 29 kts 169°
2026-05-07 16:47 45.62453 8.72979 751 ft 26 kts 169°
2026-05-07 16:48 45.62267 8.73032 752 ft 28 kts 169°
2026-05-07 16:48 45.62092 8.73082 751 ft 25 kts 168°
2026-05-07 16:48 45.61917 8.73132 748 ft 21 kts 169°
2026-05-07 16:48 45.61774 8.73174 751 ft 19 kts 157°
2026-05-07 16:49 45.61695 8.73301 752 ft 17 kts 124°
2026-05-07 16:49 45.61636 8.73428 750 ft 13 kts 123°
2026-05-07 16:49 45.61585 8.73557 749 ft 17 kts 102°
2026-05-07 16:49 45.61621 8.73725 745 ft 17 kts 22°
2026-05-07 16:50 45.61663 8.73720 745 ft 0 kts 349°
2026-05-07 16:52 45.61671 8.73718 745 ft 8 kts 349°
2026-05-07 16:52 45.61968 8.73633 745 ft 84 kts 348°
2026-05-07 16:52 45.62757 8.73420 743 ft 144 kts 349°
2026-05-07 16:52 45.63880 8.73126 1013 ft 166 kts 349°
2026-05-07 16:53 45.64981 8.72836 1780 ft 161 kts 349°
2026-05-07 16:53 45.66110 8.72608 2279 ft 176 kts 359°
2026-05-07 16:53 45.67417 8.72619 2640 ft 198 kts 360°
2026-05-07 16:53 45.68876 8.72624 2997 ft 221 kts 360°
2026-05-07 16:54 45.70464 8.72621 3514 ft 235 kts 359°
2026-05-07 16:54 45.72077 8.72271 4295 ft 238 kts 333°
2026-05-07 16:54 45.73250 8.70655 5090 ft 239 kts 293°
2026-05-07 16:54 45.73503 8.68321 5785 ft 241 kts 262°
2026-05-07 16:55 45.73138 8.66004 6459 ft 240 kts 251°
2026-05-07 16:55 45.72590 8.63735 7305 ft 242 kts 249°
2026-05-07 16:55 45.72012 8.61464 8153 ft 244 kts 250°
2026-05-07 16:55 45.71228 8.59296 8916 ft 253 kts 236°
2026-05-07 16:56 45.70171 8.57129 9358 ft 276 kts 237°
2026-05-07 16:56 45.69084 8.54798 10032 ft 285 kts 234°
2026-05-07 16:56 45.65986 8.51063 11091 ft 316 kts 206°
2026-05-07 16:57 45.63878 8.49807 11314 ft 340 kts 204°
2026-05-07 16:57 45.61623 8.48499 11637 ft 357 kts 203°
2026-05-07 16:57 45.59296 8.47155 12300 ft 363 kts 204°
2026-05-07 16:57 45.56940 8.45794 13054 ft 366 kts 204°
2026-05-07 16:58 45.54566 8.44437 13806 ft 369 kts 203°
2026-05-07 16:58 45.52145 8.43160 14448 ft 373 kts 202°
2026-05-07 16:58 45.49687 8.41945 15095 ft 376 kts 201°
2026-05-07 16:58 45.47195 8.40749 15730 ft 379 kts 201°
2026-05-07 16:59 45.44680 8.39546 16359 ft 383 kts 201°
2026-05-07 16:59 45.42185 8.38344 16984 ft 386 kts 201°
2026-05-07 16:59 45.39631 8.37100 17614 ft 389 kts 201°
2026-05-07 16:59 45.37026 8.35818 18245 ft 393 kts 201°
2026-05-07 17:00 45.34469 8.34552 18786 ft 396 kts 201°
2026-05-07 17:00 45.31860 8.33262 19335 ft 399 kts 201°
2026-05-07 17:00 45.29229 8.31963 19868 ft 401 kts 201°
2026-05-07 17:00 45.26582 8.30661 20407 ft 404 kts 201°
2026-05-07 17:01 45.23918 8.29351 20934 ft 406 kts 201°
2026-05-07 17:01 45.21247 8.28041 21439 ft 408 kts 201°
2026-05-07 17:01 45.18693 8.26791 21905 ft 411 kts 202°
2026-05-07 17:02 45.16062 8.25501 22377 ft 413 kts 202°
2026-05-07 17:02 45.13341 8.24164 22845 ft 416 kts 202°
2026-05-07 17:03 45.10559 8.22953 23302 ft 421 kts 196°
2026-05-07 17:03 45.07663 8.22247 23694 ft 425 kts 192°
2026-05-07 17:03 45.04771 8.21627 24071 ft 426 kts 192°
2026-05-07 17:03 45.01829 8.20999 24451 ft 428 kts 192°
2026-05-07 17:04 44.98884 8.20371 24814 ft 430 kts 192°
2026-05-07 17:04 44.95918 8.19736 25173 ft 431 kts 192°
2026-05-07 17:04 44.92939 8.19096 25525 ft 433 kts 192°
2026-05-07 17:04 44.89958 8.18456 25879 ft 434 kts 193°
2026-05-07 17:05 44.86968 8.17814 26234 ft 435 kts 193°
2026-05-07 17:05 44.83969 8.17172 26571 ft 436 kts 193°
2026-05-07 17:05 44.80968 8.16531 26893 ft 437 kts 193°
2026-05-07 17:05 44.77955 8.15885 27210 ft 438 kts 193°
2026-05-07 17:06 44.74969 8.15242 27513 ft 440 kts 193°
2026-05-07 17:06 44.71949 8.14510 27794 ft 439 kts 198°
2026-05-07 17:06 44.69043 8.13251 28063 ft 435 kts 206°
2026-05-07 17:06 44.66337 8.11438 28357 ft 430 kts 213°
2026-05-07 17:07 44.63779 8.09252 28665 ft 429 kts 215°
2026-05-07 17:07 44.61246 8.07064 28940 ft 427 kts 215°
2026-05-07 17:07 44.56189 8.02716 28978 ft 425 kts 215°
2026-05-07 17:08 44.51134 7.98392 28976 ft 425 kts 215°
2026-05-07 17:08 44.46074 7.94082 28976 ft 426 kts 214°
2026-05-07 17:09 44.41010 7.89760 28980 ft 426 kts 214°
2026-05-07 17:09 44.35975 7.85472 28979 ft 427 kts 214°
2026-05-07 17:10 44.30905 7.81179 28977 ft 426 kts 215°
2026-05-07 17:10 44.25985 7.76627 28989 ft 422 kts 224°
2026-05-07 17:11 44.21590 7.71189 28990 ft 423 kts 224°
2026-05-07 17:11 44.17181 7.65759 28999 ft 422 kts 224°
2026-05-07 17:12 44.13015 7.60076 29001 ft 417 kts 232°
2026-05-07 17:12 44.09207 7.53971 29003 ft 418 kts 231°
2026-05-07 17:13 44.05385 7.47862 28998 ft 419 kts 231°
2026-05-07 17:13 44.01561 7.41751 29005 ft 419 kts 231°
2026-05-07 17:14 43.97765 7.35698 28988 ft 415 kts 232°
2026-05-07 17:14 43.93992 7.29709 29001 ft 410 kts 232°
2026-05-07 17:15 43.90229 7.23753 28998 ft 410 kts 232°
2026-05-07 17:15 43.86467 7.17796 28998 ft 411 kts 231°
2026-05-07 17:16 43.82704 7.11859 28989 ft 410 kts 231°
2026-05-07 17:16 43.78936 7.05943 28997 ft 408 kts 231°
2026-05-07 17:17 43.75192 7.00061 28996 ft 407 kts 232°
2026-05-07 17:17 43.71840 6.93833 28986 ft 402 kts 243°
2026-05-07 17:18 43.69671 6.86730 28981 ft 402 kts 249°
2026-05-07 17:18 43.67561 6.79584 28974 ft 402 kts 248°
2026-05-07 17:19 43.65449 6.72431 28966 ft 402 kts 248°
2026-05-07 17:19 43.63351 6.65330 28944 ft 401 kts 248°
2026-05-07 17:20 43.61235 6.58198 28958 ft 401 kts 248°
2026-05-07 17:20 43.59116 6.51085 28950 ft 401 kts 248°
2026-05-07 17:21 43.56986 6.43973 28954 ft 402 kts 248°
2026-05-07 17:21 43.54843 6.36834 28948 ft 403 kts 248°
2026-05-07 17:22 43.52706 6.29704 28949 ft 403 kts 248°
2026-05-07 17:22 43.50923 6.23772 28949 ft 403 kts 248°
2026-05-07 17:23 43.48415 6.15489 28948 ft 403 kts 248°
2026-05-07 17:23 43.46608 6.09521 28924 ft 403 kts 247°
2026-05-07 17:24 43.44460 6.02436 28949 ft 404 kts 247°
2026-05-07 17:24 43.42286 5.95298 28951 ft 405 kts 247°
2026-05-07 17:25 43.40096 5.88150 28959 ft 404 kts 247°
2026-05-07 17:25 43.37915 5.81024 28959 ft 404 kts 247°
2026-05-07 17:26 43.35751 5.73942 28963 ft 404 kts 247°
2026-05-07 17:26 43.33568 5.66808 28963 ft 406 kts 247°
2026-05-07 17:27 43.31359 5.59650 28969 ft 407 kts 246°
2026-05-07 17:27 43.29133 5.52492 28955 ft 407 kts 246°
2026-05-07 17:28 43.26911 5.45337 28975 ft 408 kts 246°
2026-05-07 17:28 43.24684 5.38188 28973 ft 407 kts 246°
2026-05-07 17:29 43.22461 5.31087 28979 ft 409 kts 246°
2026-05-07 17:29 43.20211 5.23894 28973 ft 410 kts 246°
2026-05-07 17:30 43.17962 5.16698 28971 ft 410 kts 246°
2026-05-07 17:30 43.15708 5.09522 28973 ft 410 kts 246°
2026-05-07 17:31 43.13461 5.02406 28972 ft 410 kts 246°
2026-05-07 17:31 43.11193 4.95238 28981 ft 410 kts 245°
2026-05-07 17:32 43.08913 4.88054 28967 ft 413 kts 245°
2026-05-07 17:32 43.06580 4.80879 28962 ft 413 kts 241°
2026-05-07 17:33 43.03118 4.74663 28967 ft 413 kts 224°
2026-05-07 17:33 42.98811 4.69456 28973 ft 414 kts 223°
2026-05-07 17:34 42.94502 4.64252 28970 ft 414 kts 223°
2026-05-07 17:34 42.90191 4.59050 28969 ft 413 kts 223°
2026-05-07 17:35 42.85910 4.53894 28968 ft 414 kts 222°
2026-05-07 17:35 42.81575 4.48688 28968 ft 415 kts 222°
2026-05-07 17:36 42.77241 4.43505 28961 ft 415 kts 222°
2026-05-07 17:36 42.72909 4.38328 28976 ft 415 kts 222°
2026-05-07 17:37 42.68567 4.33144 28964 ft 415 kts 222°
2026-05-07 17:37 42.64267 4.28010 28970 ft 415 kts 222°
2026-05-07 17:38 42.59930 4.22836 28970 ft 415 kts 222°
2026-05-07 17:38 42.55582 4.17677 28966 ft 416 kts 222°
2026-05-07 17:39 42.51211 4.12515 28973 ft 415 kts 221°
2026-05-07 17:39 42.46895 4.07417 28869 ft 415 kts 221°
2026-05-07 17:40 42.44717 4.04843 28599 ft 416 kts 221°
2026-05-07 17:40 42.42536 4.02267 28327 ft 417 kts 221°
2026-05-07 17:40 42.40345 3.99682 28058 ft 419 kts 221°
2026-05-07 17:40 42.38143 3.97088 27793 ft 420 kts 221°
2026-05-07 17:41 42.35929 3.94487 27525 ft 422 kts 221°
2026-05-07 17:41 42.33703 3.91880 27240 ft 424 kts 221°
2026-05-07 17:41 42.31476 3.89268 27005 ft 426 kts 221°
2026-05-07 17:41 42.29233 3.86634 26741 ft 427 kts 221°
2026-05-07 17:42 42.26988 3.83999 26482 ft 429 kts 221°
2026-05-07 17:42 42.24804 3.81240 26229 ft 430 kts 229°
2026-05-07 17:42 42.23172 3.77867 25994 ft 433 kts 244°
2026-05-07 17:42 42.22037 3.74089 25744 ft 435 kts 246°
2026-05-07 17:43 42.20943 3.70292 25490 ft 434 kts 247°
2026-05-07 17:43 42.19860 3.66486 25253 ft 434 kts 247°
2026-05-07 17:43 42.18785 3.62692 25010 ft 433 kts 247°
2026-05-07 17:43 42.17709 3.58904 24774 ft 432 kts 247°
2026-05-07 17:44 42.16627 3.55122 24535 ft 432 kts 247°
2026-05-07 17:44 42.15543 3.51352 24300 ft 431 kts 247°
2026-05-07 17:44 42.14459 3.47589 24063 ft 430 kts 247°
2026-05-07 17:44 42.13379 3.43847 23834 ft 426 kts 247°
2026-05-07 17:45 42.12305 3.40142 23601 ft 424 kts 247°
2026-05-07 17:45 42.11234 3.36453 23337 ft 423 kts 247°
2026-05-07 17:45 42.10163 3.32765 23061 ft 422 kts 247°
2026-05-07 17:45 42.09096 3.29088 22785 ft 421 kts 247°
2026-05-07 17:46 42.08035 3.25426 22521 ft 420 kts 247°
2026-05-07 17:46 42.06977 3.21769 22251 ft 419 kts 247°
2026-05-07 17:46 42.05915 3.18111 21984 ft 418 kts 247°
2026-05-07 17:46 42.04853 3.14474 21725 ft 418 kts 247°
2026-05-07 17:47 42.03787 3.10843 21469 ft 417 kts 247°
2026-05-07 17:47 42.02737 3.07265 21211 ft 416 kts 247°
2026-05-07 17:47 42.01676 3.03645 20965 ft 416 kts 248°
2026-05-07 17:47 42.00614 3.00017 20712 ft 417 kts 248°
2026-05-07 17:48 41.99549 2.96396 20462 ft 417 kts 248°
2026-05-07 17:48 41.98483 2.92776 20200 ft 416 kts 248°
2026-05-07 17:48 41.97420 2.89172 19964 ft 415 kts 248°
2026-05-07 17:48 41.96356 2.85564 19719 ft 414 kts 248°
2026-05-07 17:49 41.95296 2.81974 19463 ft 413 kts 248°
2026-05-07 17:49 41.94242 2.78409 18877 ft 408 kts 248°
2026-05-07 17:49 41.93195 2.74878 18199 ft 405 kts 248°
2026-05-07 17:49 41.92157 2.71383 17561 ft 400 kts 248°
2026-05-07 17:50 41.91132 2.67933 16951 ft 395 kts 248°
2026-05-07 17:50 41.90120 2.64529 16384 ft 391 kts 248°
2026-05-07 17:50 41.89117 2.61160 15832 ft 387 kts 248°
2026-05-07 17:50 41.88123 2.57833 15295 ft 382 kts 248°
2026-05-07 17:51 41.87138 2.54534 14760 ft 378 kts 248°
2026-05-07 17:51 41.86164 2.51274 14232 ft 375 kts 248°
2026-05-07 17:51 41.85200 2.48049 13669 ft 372 kts 248°
2026-05-07 17:51 41.84236 2.44837 13077 ft 368 kts 248°
2026-05-07 17:52 41.83286 2.41672 12490 ft 365 kts 248°
2026-05-07 17:52 41.82338 2.38521 11888 ft 362 kts 248°
2026-05-07 17:52 41.81407 2.35433 11276 ft 360 kts 248°
2026-05-07 17:52 41.80477 2.32358 11022 ft 347 kts 248°
2026-05-07 17:53 41.79606 2.29485 10887 ft 319 kts 248°
2026-05-07 17:53 41.78804 2.26825 10607 ft 300 kts 248°
2026-05-07 17:53 41.77942 2.24335 10264 ft 292 kts 238°
2026-05-07 17:53 41.76725 2.22164 10017 ft 291 kts 225°
2026-05-07 17:54 41.75187 2.20416 9854 ft 290 kts 213°
2026-05-07 17:54 41.73398 2.19152 9714 ft 291 kts 201°
2026-05-07 17:54 41.71472 2.18358 9585 ft 289 kts 195°
2026-05-07 17:54 41.69537 2.17628 9458 ft 289 kts 195°
2026-05-07 17:55 41.67608 2.16896 9316 ft 288 kts 195°
2026-05-07 17:55 41.65683 2.16163 9193 ft 288 kts 195°
2026-05-07 17:55 41.63756 2.15429 9070 ft 287 kts 195°
2026-05-07 17:55 41.61833 2.14699 8926 ft 287 kts 195°
2026-05-07 17:56 41.59921 2.13978 8801 ft 286 kts 195°
2026-05-07 17:56 41.58006 2.13256 8576 ft 285 kts 195°
2026-05-07 17:56 41.56106 2.12537 8325 ft 284 kts 194°
2026-05-07 17:56 41.54201 2.11815 8061 ft 283 kts 195°
2026-05-07 17:57 41.52328 2.11025 7799 ft 283 kts 202°
2026-05-07 17:57 41.51174 2.10222 7633 ft 283 kts 212°
2026-05-07 17:57 41.49019 2.08220 7288 ft 282 kts 214°
2026-05-07 17:57 41.47408 2.06719 7031 ft 282 kts 214°
2026-05-07 17:58 41.45806 2.05227 6776 ft 281 kts 213°
2026-05-07 17:58 41.44202 2.03738 6506 ft 280 kts 213°
2026-05-07 17:58 41.42600 2.02254 6254 ft 279 kts 213°
2026-05-07 17:58 41.41011 2.00781 5991 ft 277 kts 213°
2026-05-07 17:59 41.39440 1.99326 5721 ft 276 kts 212°
2026-05-07 17:59 41.37883 1.97885 5490 ft 275 kts 212°
2026-05-07 17:59 41.36297 1.96417 5261 ft 274 kts 212°
2026-05-07 17:59 41.34731 1.94971 5018 ft 272 kts 212°
2026-05-07 18:00 41.33197 1.93553 4769 ft 271 kts 213°
2026-05-07 18:00 41.31648 1.92119 4548 ft 261 kts 213°
2026-05-07 18:00 41.30221 1.90795 4402 ft 241 kts 213°
2026-05-07 18:00 41.28852 1.89530 4289 ft 238 kts 212°
2026-05-07 18:01 41.27495 1.88284 4185 ft 237 kts 213°
2026-05-07 18:01 41.26142 1.87042 4086 ft 236 kts 213°
2026-05-07 18:01 41.24810 1.85817 3989 ft 237 kts 213°
2026-05-07 18:01 41.23455 1.84567 3782 ft 236 kts 212°
2026-05-07 18:02 41.20768 1.82117 3282 ft 233 kts 207°
2026-05-07 18:02 41.19252 1.81499 3077 ft 227 kts 180°
2026-05-07 18:02 41.17722 1.81847 3011 ft 223 kts 153°
2026-05-07 18:03 41.16487 1.83055 3012 ft 222 kts 128°
2026-05-07 18:03 41.15794 1.84857 3005 ft 221 kts 102°
2026-05-07 18:03 41.15785 1.86888 3008 ft 222 kts 76°
2026-05-07 18:03 41.16492 1.88700 3009 ft 225 kts 45°
2026-05-07 18:04 41.17767 1.89936 3008 ft 228 kts 37°
2026-05-07 18:04 41.19067 1.91150 2942 ft 229 kts 37°
2026-05-07 18:04 41.20352 1.92357 2718 ft 224 kts 37°
2026-05-07 18:04 41.21612 1.93541 2474 ft 219 kts 37°
2026-05-07 18:05 41.22837 1.94693 2240 ft 211 kts 37°
2026-05-07 18:05 41.24012 1.95798 1976 ft 202 kts 37°
2026-05-07 18:05 41.25135 1.96856 1741 ft 193 kts 37°
2026-05-07 18:05 41.26079 1.98046 1519 ft 184 kts 54°
2026-05-07 18:06 41.26745 1.99451 1294 ft 176 kts 63°
2026-05-07 18:06 41.27279 2.00850 1076 ft 164 kts 65°
2026-05-07 18:06 41.27740 2.02143 878 ft 146 kts 66°
2026-05-07 18:06 41.28153 2.03327 676 ft 134 kts 67°
2026-05-07 18:07 41.28537 2.04440 502 ft 133 kts 65°
2026-05-07 18:07 41.28787 2.05171 403 ft 129 kts 67°
2026-05-07 18:07 41.29167 2.06268 235 ft 129 kts 66°
2026-05-07 18:07 41.29541 2.07356 66 ft 129 kts 66°
2026-05-07 18:08 41.29886 2.08372 29 ft 107 kts 64°
2026-05-07 18:08 41.30099 2.08988 18 ft 32 kts 66°
2026-05-07 18:08 41.30140 2.09203 16 ft 22 kts 86°
2026-05-07 18:08 41.30130 2.09383 15 ft 16 kts 107°
2026-05-07 18:09 41.30066 2.09420 16 ft 9 kts 189°
2026-05-07 18:09 41.30036 2.09359 16 ft 8 kts 246°
2026-05-07 18:09 41.30014 2.09295 17 ft 7 kts 245°
2026-05-07 18:09 41.29995 2.09240 17 ft 6 kts 245°
2026-05-07 18:10 41.29979 2.09195 20 ft 6 kts 245°
2026-05-07 18:10 41.29962 2.09144 18 ft 6 kts 245°
2026-05-07 18:10 41.29932 2.09060 19 ft 17 kts 245°
2026-05-07 18:10 41.29869 2.08870 20 ft 26 kts 247°
2026-05-07 18:11 41.29787 2.08633 19 ft 30 kts 244°
2026-05-07 18:11 41.29703 2.08398 17 ft 27 kts 246°
2026-05-07 18:11 41.29645 2.08236 17 ft 12 kts 236°
2026-05-07 18:11 41.29611 2.08116 17 ft 16 kts 249°
2026-05-07 18:12 41.29558 2.07963 18 ft 18 kts 245°
2026-05-07 18:12 41.29502 2.07946 17 ft 12 kts 155°
2026-05-07 18:12 41.29445 2.07981 18 ft 6 kts 155°
2026-05-07 18:12 41.29406 2.07955 17 ft 9 kts 247°
2026-05-07 18:13 41.29399 2.07929 16 ft 0 kts 249°